Location: Vihti�l�
(61.3833°N, 23.0667°E)
Time: 04:48:27
(UTC+00:00)

Cosmos 1633 - Pass Details

Date: 29 November 2020
Orbit: 462 x 479 km, 82.5° (Epoch: 22 January)

Event Time Altitude Azimuth Distance (km) Brightness Sun altitude
Exits shadow 05:11:33 17° 325° (NW) 1,286 4.2 -12.5°
Drops below altitude 10° 05:13:09 10° 350° (N) 1,641 4.9 -12.3°
Sets 05:15:46 0° 10° (N) 2,527 6.1 -12.0°
